Location: GMARS
(34.2910°N, 116.3838°W)
Time: 19:58:21
(UTC-08:00)

Daily predictions for brighter satellites

Satellite Brightness Start Highest point End
(mag) Time Altitude Azimuth Time Altitude Azimuth Time Altitude Azimuth
IRAS Rocket 4.3 16:55:20 10° SSE 17:00:53 82° ENE 17:06:25 10° NNW
CZ-4C R/B 4.4 17:01:19 10° N 17:04:38 13° NE 17:08:04 10° ENE
CZ-2C R/B 3.7 17:02:58 10° S 17:07:43 48° W 17:12:38 10° NNW
Cosmos 1816 Rocket 4.5 17:02:27 10° N 17:08:36 79° E 17:14:45 10° S
CSL-04 Rocket 3.6 17:05:08 10° SSE 17:10:24 82° ENE 17:15:45 10° N
Cosmos 1763 Rocket 3.5 17:06:02 10° N 17:11:08 56° ENE 17:16:08 10° SSE
Cosmos 1782 3.5 17:09:25 10° SSE 17:13:04 34° E 17:16:42 10° NNE
YAOGAN 1 3.2 17:09:35 10° SE 17:13:27 33° ENE 17:17:19 10° N
GENESIS II 4.1 17:11:22 10° NNW 17:15:17 76° ENE 17:19:09 10° SSE
Cosmos 2082 Rocket 3.2 17:11:44 10° N 17:16:11 23° ENE 17:20:36 10° ESE
USA 116 3.8 17:12:00 10° NNE 17:16:15 62° E 17:19:59 10° S
COSMO-SKYMED 1 3.3 17:12:54 10° NNE 17:16:49 33° E 17:20:44 10° SSE
ERS-2 3.1 17:16:09 10° SE 17:19:15 26° ENE 17:22:22 10° NNE
Cosmos 405 Rocket 4.1 17:17:48 10° SE 17:20:30 19° E 17:23:03 11° NE
Meteor 1-20 Rocket 4.3 17:15:29 10° N 17:20:51 50° E 17:26:07 10° SSE
Meteor 1-25 Rocket 4.3 17:15:45 10° N 17:21:30 58° E 17:27:09 10° SSE
SL-27 R/B 3.2 17:18:37 10° N 17:21:31 27° ENE 17:24:26 10° SE
Cosmos 1814 Rocket 4.1 17:20:49 10° NNW 17:26:12 89° E 17:31:32 10° SSE
GPS 2-05 Rocket1 3.4 17:23:22 10° SW 17:26:20 40° SSE 17:28:41 15° E
OAO 3 Rocket 4.1 17:23:45 10° SW 17:28:17 38° SSE 17:32:07 14° E
MTI 3.8 17:26:24 10° NNE 17:29:35 58° E 17:32:45 10° S
Cosmos 2221 Rocket 3.9 17:26:00 10° SSE 17:30:09 42° E 17:34:17 10° NNE
Cosmos 1503 Rocket 4.0 17:26:46 10° S 17:31:57 61° ESE 17:37:07 10° NNE
Tiangong 1 2.7 17:30:51 10° S 17:32:27 15° SE 17:33:14 13° ESE
Cosmos 1703 Rocket 3.5 17:30:16 10° S 17:34:43 82° E 17:39:12 10° N
Ariane Rocket 3.6 17:30:37 10° S 17:35:38 63° WSW 17:40:41 10° NNW
BREEZE-M R/B 3.6 17:33:42 10° NNW 17:36:21 28° NE 17:38:43 18° E
Cosmos 540 Rocket 4.0 17:32:37 10° N 17:37:21 35° ENE 17:42:03 10° SE
Cosmos 2034 Rocket 4.5 17:32:16 10° SSE 17:38:05 39° E 17:43:54 10° NNE
CZ-2C R/B 4.1 17:34:58 10° N 17:39:26 66° WNW 17:43:56 10° SSW
Cosmos 304 Rocket 4.0 17:35:37 10° NNW 17:40:24 74° WSW 17:45:10 10° S
OAO 3 Copernicus 4.3 17:36:23 10° W 17:41:29 88° N 17:45:14 18° E
Meteor 1-27 Rocket 4.4 17:36:16 10° SSE 17:41:31 35° E 17:46:50 10° NNE
Cosmos 841 Rocket 3.5 17:41:30 10° NNW 17:46:48 89° WSW 17:52:02 10° SSE
SKYMED 3 4.5 17:42:31 10° NNE 17:46:53 78° ESE 17:51:11 10° S
Cosmos 1633 2.4 17:44:58 10° N 17:48:37 68° E 17:52:15 10° SSE
USA 234 3.2 17:42:56 12° NE 17:49:00 84° SE 17:55:33 10° SW
Meteor 1-10 Rocket 4.2 17:44:49 10° S 17:50:25 75° E 17:56:10 10° NNE
Okean 2 Rocket 3.4 17:48:36 10° N 17:52:54 41° E 17:57:09 10° SSE
FENGYUN 3A 3.8 17:51:06 10° SE 17:56:16 48° ENE 18:01:26 10° N
Cosmos 44 4.0 17:56:55 10° N 18:01:08 31° NE 18:01:26 30° ENE
SKYMED 2 4.0 18:00:36 10° N 18:04:54 63° WNW 18:09:10 10° SSW
BREEZE-M DEB (TANK) 3.1 17:58:48 10° WNW 18:05:09 58° SW 18:07:23 18° SSE
Cosmos 1464 Rocket 4.0 18:00:00 10° S 18:06:07 86° W 18:12:16 10° N
ALOS 2.1 18:04:46 10° SSE 18:09:23 67° ENE 18:14:01 10° N
Cosmos 2369 Rocket 3.9 18:05:34 10° SE 18:07:10 15° SE 18:07:10 15° SE
Cosmos 1833 Rocket 2.5 18:06:31 10° NNW 18:12:09 71° ENE 18:17:44 10° SSE
Cosmos 2297 4.2 18:06:33 10° SSW 18:12:10 60° WNW 18:17:50 10° NNE
SPOT 3 Rocket 3.4 18:07:46 10° SSE 18:12:58 84° ENE 18:18:12 10° NNW
Cosmos 2278 Rocket 4.4 18:12:45 10° WSW 18:17:03 22° WNW 18:21:23 10° N
CZ-4 R/B 3.8 18:15:04 10° SSW 18:18:10 23° W 18:21:15 10° NW
Cosmos 1441 Rocket 3.3 18:18:59 10° SSW 18:22:56 76° W 18:24:32 34° N
Meteor 1-11 Rocket 3.7 18:19:02 10° N 18:24:50 64° E 18:30:28 10° SSE
Gblst 52 Del rocket 4.3 18:23:53 10° SSW 18:29:12 52° SE 18:29:56 49° ESE
USA 229 DEB 3.7 18:27:17 10° SSW 18:33:49 57° ESE 18:35:11 48° ENE
USA 229 3.7 18:27:24 10° SSW 18:33:55 56° ESE 18:35:13 49° ENE
NOAA 12 4.3 18:28:58 10° S 18:34:15 70° WSW 18:39:34 10° NNW
Meteor 2-20 Rocket 4.2 18:32:42 10° N 18:38:47 72° E 18:44:50 10° SSE
Thor Agena Rocket 3.5 18:48:43 64° N 18:49:29 80° WNW 18:54:38 10° SSW
CZ-4C R/B 2.9 18:47:24 10° NNW 18:54:35 57° NE 18:54:35 57° NE
Cosmos 2082 Rocket 3.3 18:55:05 10° NW 19:00:24 42° WSW 19:05:39 10° S
MOS 1-B Rocket 4.4 18:59:36 10° SSE 19:06:34 87° ENE 19:14:52 10° NNW
OAO 3 Rocket 4.4 19:06:41 10° WSW 19:09:56 41° WSW 19:09:56 41° WSW
Cosmos 2369 Rocket 4.4 19:47:33 10° SW 19:49:02 18° SW 19:49:02 18° SW
